Starlink 30899

operational
NORAD ID: 58420 Int'l Des: 2023-180 Owner: SPXS Country: US Constellation: starlink
LEOCIRCULAR

Über Starlink 30899

Beschreibung wird geladen...

Live-Position

3D-Globus wird geladen...

Nächste Überflüge

Höhenverlauf

Altitude vs Time

uPlot chart will show altitude changes over time

Zweizeiliger Elementsatz

1 58420U 23180U 25352.43425528 -.00000405 00000-0 -14867-4 0 9994
2 58420 43.0025 137.4187 0001717 271.1500 88.9146 15.02534606115250
Epoch: 18. Dez. 2025 • Age: 11 hours

Aktueller Status

Höhe 560.4 km
Geschwindigkeit 7.58 km/s
Subsatellitenpunkt -10.33°S, 73.1°E
Startdatum 22. Nov. 2023
Alter 2 years
Typ internet

Technische Details

Klassifizierung Payload
Masse 730.00 kg
Trockenmasse 700.00 kg
Gesamtmasse 730.00 kg
Länge 0.30 m
Durchmesser 4.10 m
Spannweite 29.00 m
Form Box + pan
Hersteller SPXS
Bus-Typ Starlink V2M
Phasenstatus In Orbit
Besitzer/Staat SPXS/US

Große Konstellationen

Loading constellations...